Temp
-16 -16 -16 -16 -17 -16 -16 -16 -16 -16 -16 -17 -17 -16 -15 -16 -16 -16 -16 -16 -16 -15 -15 -15 -15 -15 -15 -14 -15 -15 -15 -15 -15 -15 -15 -15 -15 -15 -15 -16 -16 -17 -17 -17
-17 -16 -16 -16 -17 -16 -16 -15 -16 -16 -16 -16 -16 -16 -16 -16 -16 -16 -16 -16 -16 -16 -15 -15 -15 -15 -15 -15 -15 -15 -14 -14 -14 -14 -14 -15 -15 -15 -15 -16 -16 -17 -17 -17
-15 -16 -17 -16 -17 -16 -16 -16 -15 -16 -16 -16 -16 -16 -15 -15 -15 -16 -16 -16 -16 -15 -15 -15 -15 -15 -15 -16 -16 -15 -15 -15 -15 -15 -14 -15 -15 -15 -15 -16 -16 -16 -17 -18
-15 -16 -17 -16 -16 -16 -16 -16 -16 -16 -15 -15 -15 -15 -15 -15 -15 -15 -16 -15 -15 -15 -15 -15 -15 -15 -15 -15 -15 -15 -15 -14 -14 -15 -15 -15 -15 -15 -16 -15 -15 -15 -17 -18
-16 -17 -17 -17 -16 -16 -15 -16 -16 -16 -16 -15 -15 -15 -15 -15 -15 -15 -15 -15 -15 -15 -15 -15 -15 -15 -15 -15 -14 -14 -14 -14 -14 -15 -15 -15 -15 -16 -15 -16 -16 -16 -16 -17
-16 -17 -17 -16 -16 -17 -17 -16 -16 -16 -16 -16 -15 -15 -15 -15 -15 -15 -15 -14 -14 -15 -15 -15 -15 -15 -14 -14 -14 -14 -14 -14 -14 -15 -15 -15 -15 -16 -16 -16 -16 -17 -17 -17
-17 -17 -16 -17 -17 -17 -17 -16 -16 -15 -16 -15 -15 -15 -16 -16 -15 -15 -14 -14 -14 -14 -14 -14 -14 -14 -14 -14 -14 -14 -14 -14 -15 -15 -15 -15 -16 -16 -16 -17 -17 -17 -18 -18
-16 -16 -17 -17 -17 -16 -17 -16 -16 -16 -16 -15 -15 -15 -15 -14 -14 -14 -14 -14 -14 -14 -14 -14 -14 -14 -14 -14 -14 -14 -14 -15 -15 -15 -15 -16 -16 -16 -17 -17 -18 -18 -18 -19
-16 -15 -16 -16 -17 -17 -17 -16 -16 -16 -16 -15 -15 -16 -15 -14 -14 -14 -14 -14 -14 -14 -14 -14 -14 -14 -14 -14 -14 -15 -15 -15 -15 -16 -16 -16 -17 -17 -17 -18 -18 -18 -19 -19
-16 -16 -16 -16 -16 -16 -16 -16 -16 -16 -15 -15 -15 -15 -15 -14 -14 -14 -14 -14 -14 -14 -14 -14 -14 -14 -14 -15 -15 -15 -15 -15 -16 -16 -16 -17 -17 -17 -18 -18 -18 -19 -19 -19
-17 -17 -16 -16 -16 -16 -15 -15 -15 -15 -15 -15 -15 -15 -14 -14 -14 -14 -14 -14 -14 -14 -14 -14 -14 -15 -15 -15 -15 -15 -15 -16 -16 -16 -17 -17 -17 -18 -18 -19 -19 -19 -19 -20
-16 -17 -16 -16 -15 -16 -15 -15 -15 -15 -15 -15 -15 -15 -14 -14 -14 -14 -14 -14 -14 -15 -15 -15 -15 -15 -15 -15 -15 -15 -16 -16 -17 -17 -17 -18 -18 -18 -19 -19 -19 -20 -20 -20
-15 -16 -16 -15 -15 -15 -15 -15 -15 -15 -15 -15 -15 -15 -14 -15 -14 -15 -15 -15 -15 -15 -15 -15 -15 -15 -15 -16 -16 -16 -16 -17 -17 -17 -18 -18 -18 -19 -19 -20 -20 -20 -20 -21
-15 -16 -15 -16 -17 -17 -15 -15 -15 -15 -15 -15 -15 -15 -15 -15 -15 -15 -15 -15 -15 -15 -15 -15 -15 -15 -16 -16 -16 -16 -17 -17 -18 -18 -18 -19 -19 -19 -20 -20 -20 -20 -21 -21
-16 -15 -16 -16 -15 -16 -15 -15 -15 -15 -15 -15 -15 -15 -15 -16 -15 -15 -14 -15 -15 -15 -15 -15 -16 -16 -16 -16 -17 -17 -17 -18 -18 -19 -19 -19 -19 -20 -20 -20 -21 -21 -21 -21
-15 -15 -15 -15 -15 -15 -15 -15 -15 -15 -15 -15 -15 -15 -16 -15 -15 -15 -15 -15 -15 -15 -15 -16 -16 -16 -17 -17 -17 -17 -18 -18 -19 -19 -19 -20 -20 -20 -20 -21 -21 -22 -22 -22
-15 -15 -16 -15 -15 -15 -15 -15 -15 -15 -15 -15 -15 -15 -15 -15 -15 -15 -15 -15 -15 -15 -16 -16 -16 -17 -17 -18 -18 -18 -19 -19 -19 -19 -20 -20 -20 -21 -21 -21 -22 -22 -22 -22
-16 -16 -16 -16 -16 -15 -15 -15 -15 -15 -15 -15 -15 -15 -15 -15 -15 -15 -15 -15 -15 -16 -16 -17 -17 -18 -18 -18 -18 -19 -19 -19 -20 -20 -20 -20 -21 -21 -21 -22 -22 -23 -23 -23
-16 -16 -16 -15 -15 -15 -15 -14 -15 -15 -15 -15 -15 -15 -14 -15 -15 -15 -15 -16 -16 -17 -17 -17 -18 -18 -18 -18 -19 -19 -19 -20 -20 -20 -20 -21 -21 -21 -22 -22 -23 -23 -23 -24
-16 -16 -16 -16 -15 -15 -15 -15 -15 -15 -15 -14 -15 -15 -15 -15 -15 -16 -16 -16 -17 -17 -17 -18 -18 -18 -18 -19 -19 -20 -20 -20 -20 -20 -21 -21 -22 -22 -22 -22 -23 -23 -24 -25
-16 -16 -16 -16 -15 -15 -14 -14 -14 -14 -14 -14 -14 -14 -15 -15 -15 -16 -16 -16 -17 -17 -18 -18 -18 -19 -19 -19 -20 -20 -20 -20 -21 -21 -21 -21 -22 -22 -22 -23 -24 -24 -25 -26
-16 -15 -15 -15 -15 -14 -15 -14 -14 -14 -14 -14 -14 -14 -15 -15 -15 -16 -16 -17 -17 -18 -18 -18 -19 -19 -19 -20 -20 -20 -20 -21 -21 -21 -21 -22 -22 -23 -23 -24 -24 -25 -27 -27
-15 -15 -15 -15 -15 -15 -14 -14 -14 -14 -15 -15 -15 -15 -15 -16 -16 -17 -17 -18 -18 -18 -18 -19 -19 -20 -20 -20 -20 -21 -21 -22 -22 -22 -22 -22 -23 -24 -24 -25 -25 -27 -28 -28
-15 -15 -15 -15 -15 -15 -15 -15 -15 -15 -15 -15 -15 -16 -17 -17 -17 -17 -18 -18 -18 -19 -19 -19 -19 -20 -20 -20 -21 -21 -22 -22 -22 -22 -22 -23 -23 -24 -25 -26 -28 -28 -29 -29
-15 -16 -16 -16 -15 -15 -15 -15 -15 -15 -16 -16 -16 -17 -17 -18 -18 -18 -18 -18 -19 -19 -19 -20 -20 -20 -21 -21 -22 -22 -23 -23 -23 -23 -23 -24 -24 -25 -27 -28 -28 -29 -29 -30
-16 -16 -16 -16 -16 -16 -15 -16 -16 -16 -17 -17 -17 -18 -18 -18 -18 -19 -19 -19 -19 -20 -20 -20 -20 -21 -21 -22 -22 -22 -23 -23 -23 -23 -24 -25 -26 -27 -28 -28 -29 -30 -31 -31
Height
5767 5768 5769 5770 5773 5778 5781 5783 5787 5787 5785 5787 5789 5788 5788 5790 5791 5792 5792 5792 5792 5793 5792 5792 5792 5793 5793 5792 5792 5790 5790 5789 5786 5783 5781 5779 5776 5772 5769 5765 5761 5756 5753 5749
5768 5768 5771 5774 5778 5780 5782 5783 5786 5785 5787 5788 5788 5789 5788 5789 5789 5790 5790 5791 5790 5790 5790 5790 5790 5790 5789 5789 5788 5786 5785 5783 5780 5777 5774 5771 5768 5764 5760 5754 5750 5747 5742 5737
5763 5769 5772 5776 5778 5781 5782 5783 5779 5786 5786 5786 5789 5790 5788 5788 5788 5788 5788 5787 5787 5787 5788 5788 5788 5787 5786 5785 5783 5781 5779 5776 5773 5770 5768 5765 5762 5757 5752 5747 5743 5739 5734 5730
5763 5764 5772 5774 5777 5779 5780 5781 5781 5783 5784 5785 5786 5788 5783 5786 5788 5787 5786 5786 5785 5785 5785 5785 5784 5783 5782 5780 5779 5777 5774 5771 5769 5766 5763 5760 5756 5752 5748 5743 5737 5732 5727 5720
5766 5770 5772 5775 5776 5778 5771 5778 5780 5782 5783 5781 5783 5787 5783 5783 5785 5784 5784 5783 5782 5782 5781 5781 5779 5778 5777 5776 5774 5772 5770 5768 5765 5762 5758 5754 5750 5745 5739 5733 5727 5721 5715 5710
5764 5767 5771 5771 5774 5775 5777 5778 5779 5780 5782 5783 5785 5785 5788 5783 5781 5778 5780 5779 5778 5777 5776 5775 5775 5774 5773 5772 5770 5768 5766 5763 5760 5756 5752 5748 5743 5737 5730 5725 5719 5712 5705 5698
5764 5766 5769 5771 5772 5773 5775 5777 5779 5779 5782 5781 5780 5782 5783 5780 5779 5776 5776 5775 5774 5773 5773 5772 5771 5770 5770 5768 5766 5764 5761 5758 5754 5750 5746 5740 5734 5728 5722 5716 5709 5702 5695 5688
5766 5767 5766 5767 5770 5774 5774 5776 5778 5778 5780 5781 5778 5778 5778 5775 5775 5774 5773 5772 5771 5770 5770 5769 5768 5767 5766 5763 5761 5757 5754 5751 5746 5742 5736 5731 5725 5718 5713 5706 5700 5692 5685 5677
5764 5763 5765 5765 5767 5770 5771 5773 5773 5774 5774 5774 5775 5777 5773 5772 5772 5771 5771 5770 5769 5769 5768 5767 5765 5762 5760 5757 5754 5751 5746 5743 5738 5732 5727 5721 5715 5709 5703 5696 5689 5681 5673 5666
5760 5763 5762 5763 5765 5767 5768 5769 5771 5770 5770 5771 5775 5773 5774 5770 5770 5769 5768 5768 5767 5766 5764 5762 5760 5757 5754 5751 5748 5743 5738 5733 5728 5723 5717 5711 5705 5699 5692 5684 5677 5669 5662 5654
5758 5760 5759 5761 5763 5765 5765 5766 5767 5767 5768 5768 5770 5773 5769 5768 5767 5767 5766 5764 5763 5761 5759 5757 5754 5752 5747 5743 5739 5734 5729 5724 5719 5713 5707 5701 5694 5687 5680 5673 5665 5657 5649 5641
5753 5755 5756 5758 5757 5760 5761 5762 5763 5763 5765 5765 5766 5767 5765 5765 5764 5763 5762 5760 5758 5756 5754 5751 5748 5744 5740 5735 5730 5726 5721 5715 5709 5703 5696 5689 5683 5675 5668 5661 5653 5644 5636 5627
5750 5752 5753 5754 5756 5757 5757 5758 5758 5759 5760 5762 5763 5765 5761 5761 5760 5759 5757 5755 5753 5750 5747 5744 5740 5735 5731 5726 5721 5716 5711 5704 5698 5692 5685 5679 5672 5664 5655 5647 5639 5630 5622 5612
5746 5748 5749 5751 5753 5751 5752 5753 5754 5755 5756 5759 5760 5760 5756 5755 5753 5752 5752 5749 5745 5743 5738 5735 5731 5726 5721 5715 5710 5705 5699 5693 5686 5679 5672 5665 5659 5651 5642 5634 5625 5616 5607 5598
5742 5743 5744 5745 5746 5747 5748 5749 5750 5751 5754 5753 5757 5753 5754 5748 5744 5744 5743 5741 5738 5735 5730 5725 5720 5715 5710 5704 5698 5692 5687 5680 5674 5667 5660 5653 5645 5637 5629 5620 5611 5603 5594 5584
5737 5738 5739 5740 5740 5742 5743 5744 5745 5747 5748 5748 5749 5747 5746 5742 5739 5737 5735 5731 5728 5724 5719 5714 5708 5703 5698 5692 5686 5681 5675 5668 5661 5654 5647 5639 5631 5623 5616 5607 5598 5589 5580 5568
5731 5732 5734 5734 5736 5736 5739 5741 5741 5741 5742 5741 5740 5741 5735 5734 5732 5730 5726 5722 5718 5713 5707 5702 5697 5692 5686 5680 5674 5668 5662 5655 5649 5642 5634 5627 5619 5610 5602 5592 5583 5574 5564 5552
5727 5727 5728 5729 5730 5731 5735 5735 5735 5735 5735 5733 5732 5731 5727 5725 5723 5720 5715 5711 5707 5702 5697 5692 5687 5681 5674 5668 5662 5655 5649 5643 5637 5629 5621 5613 5606 5597 5587 5577 5568 5558 5547 5536
5722 5723 5724 5724 5725 5727 5729 5729 5729 5727 5728 5724 5724 5723 5720 5717 5714 5709 5705 5701 5695 5691 5685 5680 5674 5668 5661 5655 5650 5643 5637 5630 5623 5616 5607 5601 5593 5583 5572 5561 5551 5542 5531 5519
5718 5719 5720 5721 5720 5721 5722 5722 5722 5720 5719 5718 5717 5714 5711 5708 5704 5698 5694 5689 5684 5679 5673 5668 5662 5656 5649 5644 5638 5631 5624 5617 5609 5602 5594 5586 5576 5567 5557 5546 5534 5524 5514 5502
5713 5714 5715 5715 5714 5715 5715 5715 5714 5714 5715 5710 5708 5705 5701 5697 5693 5688 5682 5677 5672 5667 5661 5655 5650 5644 5638 5632 5625 5619 5611 5603 5596 5588 5580 5570 5560 5550 5539 5529 5519 5508 5497 5485
5709 5709 5710 5710 5709 5709 5709 5708 5708 5707 5703 5701 5697 5693 5689 5685 5680 5675 5670 5665 5660 5654 5649 5643 5637 5631 5625 5619 5612 5605 5597 5590 5582 5574 5564 5554 5544 5533 5523 5513 5501 5489 5478 5468
5704 5705 5705 5706 5703 5702 5701 5699 5698 5696 5693 5690 5686 5682 5677 5672 5667 5663 5657 5652 5648 5642 5637 5632 5624 5619 5612 5605 5598 5591 5583 5576 5568 5558 5547 5537 5527 5516 5505 5495 5485 5474 5464 5451
5698 5698 5698 5698 5696 5693 5691 5690 5688 5685 5681 5678 5674 5669 5665 5660 5654 5650 5645 5641 5635 5630 5623 5617 5611 5605 5598 5592 5585 5577 5569 5561 5553 5542 5531 5521 5510 5499 5488 5478 5469 5459 5449 5439
5691 5691 5690 5690 5687 5685 5682 5681 5677 5673 5670 5666 5662 5658 5653 5649 5644 5638 5633 5628 5622 5616 5611 5605 5598 5592 5585 5578 5570 5562 5553 5545 5536 5526 5515 5504 5494 5484 5474 5464 5454 5446 5436 5428
5684 5682 5681 5679 5679 5675 5671 5670 5666 5663 5658 5654 5650 5646 5641 5636 5631 5626 5621 5616 5610 5604 5598 5592 5585 5579 5571 5564 5556 5548 5539 5529 5520 5511 5501 5490 5479 5468 5458 5449 5442 5432 5424 5417
Wind_Speed
20 24 15 14 13 1 3 8 9 9 8 8 10 11 9 6 4 6 8 9 11 11 11 13 13 15 17 18 20 23 26 28 30 32 35 37 38 37 39 43 45 43 48 53
14 14 9 13 10 4 6 7 14 9 6 6 10 11 9 7 7 8 11 12 14 13 14 14 14 15 16 19 23 26 28 31 33 34 36 38 40 42 45 47 48 53 52 49
16 15 17 18 11 7 10 8 16 7 7 5 8 11 5 9 11 11 13 14 16 16 15 16 18 19 21 22 24 26 28 30 30 32 35 37 38 40 44 48 53 52 52 52
8 18 16 20 8 6 7 6 11 12 8 8 6 9 23 7 16 15 16 18 19 20 20 22 22 22 23 24 26 27 27 26 26 28 30 32 35 39 41 44 47 50 52 54
4 12 12 7 11 6 13 4 8 7 8 14 7 13 21 15 23 22 22 23 24 24 25 25 24 22 23 23 20 20 20 21 24 28 30 32 36 39 42 45 49 51 55 56
21 16 15 14 13 11 10 11 7 10 9 14 10 13 12 20 21 23 25 28 28 26 25 23 22 22 19 15 16 19 21 24 27 30 33 36 40 44 46 49 52 54 56 58
16 13 18 18 15 12 13 12 9 9 11 11 18 18 15 27 26 27 20 22 21 20 20 19 16 14 14 16 19 22 25 28 30 33 36 40 43 47 49 52 55 57 58 59
15 16 20 16 12 8 10 12 12 13 10 8 20 14 16 17 16 16 12 11 11 11 11 11 12 14 17 20 23 26 29 32 34 37 40 43 46 49 51 53 55 57 58 60
12 19 19 13 14 14 16 16 18 17 17 18 14 12 13 11 9 9 9 10 9 11 12 15 17 20 22 25 28 31 34 35 38 41 44 46 49 51 53 55 56 58 60 62
17 17 21 16 18 19 20 19 17 18 18 12 5 11 13 12 13 14 13 13 15 17 19 22 24 27 29 32 34 37 40 41 43 46 48 49 51 54 56 57 58 60 62 64
17 17 19 19 19 17 20 20 19 20 17 14 14 8 13 14 15 15 17 18 19 21 24 27 30 32 36 39 41 43 45 46 48 50 52 53 55 57 58 59 61 62 64 66
20 20 23 18 23 21 23 21 20 20 18 17 18 16 15 18 19 20 20 22 24 26 28 31 34 36 39 42 45 46 47 50 53 55 56 58 58 59 60 61 61 64 65 67
19 22 23 25 22 21 20 19 19 21 21 19 20 16 20 22 23 23 23 25 28 30 33 35 39 41 44 46 47 48 50 53 54 55 55 58 60 60 61 62 63 65 66 69
23 24 24 24 17 19 17 19 20 23 24 19 19 21 27 28 28 28 27 30 33 35 39 41 44 46 47 49 50 51 53 54 54 56 57 58 59 61 61 63 64 66 70 74
24 24 24 23 23 21 20 20 21 23 21 25 18 25 23 32 37 34 34 36 40 41 45 47 49 50 50 52 53 54 54 55 54 55 56 58 60 62 62 63 65 69 75 79
22 24 23 23 22 22 22 21 20 22 23 25 25 31 31 35 39 39 42 44 46 48 49 50 51 52 53 53 54 55 54 54 54 56 58 60 61 62 60 64 66 72 77 81
21 22 23 24 22 24 21 18 21 24 25 29 32 32 39 39 41 43 46 47 48 49 50 52 52 52 52 54 55 54 53 54 55 58 58 60 60 61 66 67 69 72 77 84
19 20 21 20 21 23 18 21 23 26 28 32 35 36 41 42 44 45 47 48 49 51 51 51 51 51 53 54 54 53 53 54 56 58 60 58 61 66 72 72 72 75 80 82
19 18 19 19 20 21 20 23 25 28 29 36 35 38 40 41 43 46 48 48 51 51 51 51 51 52 53 53 52 53 55 56 57 56 55 62 67 72 76 78 76 77 80 80
18 18 19 18 20 22 21 23 26 29 32 33 33 37 39 41 44 46 48 50 50 50 50 51 51 51 52 52 54 55 55 55 55 57 59 63 66 72 78 82 80 79 78 81
19 20 20 20 22 23 24 25 25 26 30 31 34 38 41 44 46 48 49 49 49 49 49 49 49 51 52 53 53 53 56 58 60 66 68 72 73 76 77 79 80 79 82 80
17 18 17 19 21 23 22 25 27 30 33 36 39 42 45 47 48 48 48 47 47 47 48 50 52 53 53 53 54 55 57 57 62 72 75 79 77 77 78 78 78 81 79 75
17 17 19 20 25 26 29 31 33 36 38 41 43 45 47 47 48 46 47 47 48 50 51 51 52 52 53 54 56 58 59 62 69 77 82 78 76 75 76 80 82 78 71 70
23 23 25 26 30 32 35 37 38 41 43 44 45 45 46 46 48 48 48 49 51 52 53 53 53 53 55 56 60 61 62 63 73 82 82 79 80 81 81 82 75 70 69 68
27 28 31 32 35 37 40 40 43 44 45 45 45 43 44 45 47 49 50 51 53 53 53 53 54 56 56 58 63 64 64 67 72 78 82 82 83 83 79 75 75 70 64 58
32 34 36 38 38 40 44 43 44 45 44 43 43 44 45 47 48 50 51 52 52 53 54 56 57 59 60 61 64 67 72 75 77 79 83 84 81 78 77 76 70 64 56 53
Wind_Direction
194 201 183 138 140 308 163 199 194 211 232 188 208 227 219 222 237 232 253 247 251 255 261 265 274 281 280 281 279 278 279 279 281 287 292 296 298 301 306 312 311 310 307 308
144 203 162 181 189 213 183 187 175 216 203 178 208 222 233 245 256 262 261 259 254 255 262 271 272 275 278 279 281 281 284 290 293 297 300 301 302 306 311 314 311 310 310 311
208 185 174 177 190 202 208 203 205 246 232 199 215 235 268 252 233 246 260 261 262 264 270 272 275 279 281 283 283 286 294 298 302 303 306 306 308 311 311 310 309 310 309 309
243 149 186 186 201 213 235 238 239 237 246 247 235 236 235 280 274 263 258 258 258 264 267 270 275 276 279 278 284 292 299 304 307 307 307 309 310 309 307 307 310 310 310 310
215 186 193 206 234 244 266 205 232 235 243 269 281 273 300 288 286 270 261 259 260 262 264 266 269 275 278 286 294 298 305 306 305 305 308 309 309 307 309 311 312 313 313 310
201 197 214 228 257 267 253 248 258 275 253 253 240 253 246 292 280 267 262 262 262 262 264 267 270 277 284 292 298 298 303 306 307 307 305 304 304 307 308 309 308 309 310 310
253 217 240 253 270 255 248 243 263 263 237 273 249 254 267 252 261 267 267 265 262 263 264 268 271 279 286 291 294 298 301 303 303 303 304 304 305 306 308 308 307 307 308 310
225 255 246 243 231 224 239 221 255 258 248 242 272 269 256 261 266 271 268 266 259 256 261 274 279 284 290 292 295 297 301 304 305 305 304 303 305 306 305 305 306 307 309 309
192 233 252 241 229 229 256 248 249 258 264 272 264 272 264 263 263 271 270 266 259 269 277 278 281 286 292 294 295 296 299 302 303 303 302 303 303 304 305 307 308 308 309 308
201 225 239 232 235 238 248 256 258 257 268 261 243 237 248 260 268 268 265 263 271 278 283 285 286 289 292 294 296 298 299 301 302 301 302 302 302 304 306 308 308 307 308 307
220 223 250 241 248 250 251 254 252 257 249 234 220 231 252 259 262 264 270 279 285 290 291 291 292 292 294 296 297 297 298 299 298 300 301 303 304 306 307 307 307 307 308 308
229 235 245 248 248 249 255 254 252 244 238 228 225 234 260 264 270 273 279 282 287 291 294 294 296 296 296 297 297 297 297 297 297 298 301 304 306 306 306 307 307 308 309 310
237 243 249 256 257 258 255 247 237 238 232 231 240 258 264 271 272 276 280 285 290 295 296 297 297 298 298 297 299 297 297 298 300 301 302 301 304 307 307 308 308 307 309 312
243 244 251 254 251 247 236 233 233 235 233 241 252 262 280 274 276 282 286 289 293 296 296 298 299 298 297 297 297 297 300 302 303 302 302 303 306 307 308 309 308 309 310 309
247 246 246 245 246 245 240 235 239 239 242 250 255 266 271 278 287 291 292 293 295 296 297 299 299 297 297 298 299 300 303 303 303 301 302 304 306 308 309 309 309 308 307 307
241 243 242 241 243 243 242 242 247 251 255 262 263 264 274 276 284 289 292 294 296 297 298 298 297 298 299 299 300 302 303 303 302 303 304 306 308 308 308 307 306 306 306 307
237 243 240 242 243 245 244 250 255 256 260 264 267 273 274 282 283 287 290 293 295 296 296 297 298 298 298 299 301 302 302 302 303 304 305 306 305 307 309 308 308 309 308 308
240 240 239 239 239 245 248 250 257 262 264 266 270 274 279 283 287 291 292 292 294 295 296 297 297 298 298 300 301 302 302 302 302 303 305 307 305 303 306 307 308 309 307 309
241 239 240 242 244 253 255 256 261 264 268 270 273 279 282 286 288 288 289 292 293 295 296 296 297 297 298 299 300 300 301 301 302 305 307 301 299 301 305 306 306 307 306 318
243 244 246 249 253 258 260 262 265 269 273 274 279 281 284 286 286 288 292 292 292 293 294 295 297 298 299 300 301 301 303 302 304 305 303 302 302 301 304 303 301 304 315 322
248 251 256 260 265 267 270 272 274 277 281 285 286 286 287 288 290 290 291 291 292 294 296 297 298 298 299 300 301 301 304 304 303 301 303 304 301 297 297 300 302 310 321 324
246 252 257 262 268 273 276 280 282 288 289 290 290 291 292 292 292 293 294 294 295 296 297 298 299 300 301 301 302 303 306 306 294 298 300 298 293 293 299 304 310 320 325 324
257 264 269 274 278 282 286 290 290 291 291 292 292 292 293 294 294 295 295 297 297 298 298 300 301 301 302 304 304 304 306 304 299 293 292 292 292 299 304 309 318 323 322 324
267 271 276 279 282 285 287 289 291 292 293 294 294 293 293 293 294 295 296 297 298 300 301 302 302 302 303 302 301 303 304 301 292 289 292 293 297 304 311 319 322 321 322 322
270 274 279 280 281 286 286 290 291 292 292 292 292 292 292 293 295 296 298 299 301 302 302 301 302 302 303 300 299 299 301 298 297 296 294 299 305 311 318 320 321 319 320 318
274 277 278 280 282 283 286 288 288 289 289 290 291 293 295 296 297 298 299 300 301 301 301 300 300 300 301 299 297 295 296 296 296 298 300 303 310 317 318 317 316 316 316 314